NI4CE-10 Weather Reports


Display with metric or nautical units.
time (UTC)temp
F
wind
direction
speed
MPH
gust
MPH
rain 1hr
in
rain 24hr
in
rain mn
in
humidity
%
barometer
mb
20260508013033 73 288 1.0 3.0 0.00 0.00 0.00 100 1017.6
20260508012533 73 310 2.0 3.0 0.00 0.00 0.00 100 1017.6
20260508012256 73 296 0.0 3.0 0.00 0.00 0.00 100 1017.5
20260508012033 74 312 2.0 3.0 0.00 0.00 0.00 100 1017.5
20260508011533 73 296 0.0 3.0 0.00 0.00 0.00 100 1017.5
20260508011033 74 271 1.0 2.0 0.00 0.00 0.00 100 1017.5
20260508010812 74 303 0.0 0.0 0.00 0.00 0.00 100 1017.4
20260508010533 74 303 0.0 0.0 0.00 0.00 0.00 100 1017.4
20260508010033 74 303 0.0 0.0 0.00 0.00 0.00 100 1017.4
20260508005533 75 303 0.0 3.0 0.00 0.00 0.00 100 1017.4
20260508005254 76 274 0.0 0.0 0.00 0.00 0.00 100 1017.2
20260508005033 75 267 1.0 3.0 0.00 0.00 0.00 100 1017.4
20260508004533 75 319 1.0 2.0 0.00 0.00 0.00 100 1017.3
20260508004033 75 274 1.0 1.0 0.00 0.00 0.00 100 1017.3
20260508003533 75 274 0.0 0.0 0.00 0.00 0.00 100 1017.3
20260508003033 75 274 0.0 0.0 0.00 0.00 0.00 100 1017.2
20260508002533 76 274 0.0 0.0 0.00 0.00 0.00 100 1017.2
20260508002359 82 295 1.0 5.0 0.00 0.00 0.00 100 1017.1
20260508002033 77 274 0.0 0.0 0.00 0.00 0.00 100 1017.2
20260508001533 78 274 0.0 0.0 0.00 0.00 0.00 100 1017.2
20260508001033 79 274 0.0 0.0 0.00 0.00 0.00 100 1017.1
20260508000533 80 274 0.0 0.0 0.00 0.00 0.00 100 1017.1
20260508000033 80 274 0.0 3.0 0.00 0.00 0.00 100 1017.0
20260507235533 81 284 1.0 2.0 0.00 0.00 0.00 100 1017.0
20260507235033 81 279 1.0 5.0 0.00 0.00 0.00 100 1017.0
20260507234533 82 295 1.0 4.0 0.00 0.00 0.00 100 1017.1
20260507234033 82 295 1.0 5.0 0.00 0.00 0.00 100 1017.1
20260507233533 83 299 0.0 3.0 0.00 0.00 0.00 100 1017.1
20260507233033 83 286 0.0 7.0 0.00 0.00 0.00 100 1017.0
20260507232533 83 306 1.0 6.0 0.00 0.00 0.00 100 1017.0
20260507232033 84 295 4.0 8.0 0.00 0.00 0.00 100 1017.0
20260507231533 84 300 3.0 6.0 0.00 0.00 0.00 100 1017.0
20260507231033 85 298 1.0 7.0 0.00 0.00 0.00 100 1016.9
20260507230533 85 317 2.0 5.0 0.00 0.00 0.00 100 1016.8
20260507230033 85 282 2.0 7.0 0.00 0.00 0.00 100 1016.8
20260507225533 86 327 2.0 7.0 0.00 0.00 0.00 100 1016.8
20260507225033 86 312 6.0 10.0 0.00 0.00 0.00 100 1016.8
20260507224533 86 334 8.0 8.0 0.00 0.00 0.00 100 1016.8
20260507224033 86 267 4.0 8.0 0.00 0.00 0.00 100 1016.7
20260507223533 86 264 6.0 9.0 0.00 0.00 0.00 100 1016.7
20260507223033 86 295 3.0 10.0 0.00 0.00 0.00 100 1016.7
20260507222533 87 289 2.0 10.0 0.00 0.00 0.00 100 1016.7
20260507222033 87 284 3.0 11.0 0.00 0.00 0.00 100 1016.7
20260507221534 87 270 2.0 7.0 0.00 0.00 0.00 100 1016.8
20260507221034 87 313 4.0 7.0 0.00 0.00 0.00 100 1016.7
20260507220534 87 281 3.0 7.0 0.00 0.00 0.00 100 1016.8
20260507220034 87 268 4.0 9.0 0.00 0.00 0.00 100 1016.7
20260507215534 88 288 1.0 13.0 0.00 0.00 0.00 100 1016.7
20260507215034 87 312 2.0 10.0 0.00 0.00 0.00 100 1016.7
20260507214534 88 338 6.0 11.0 0.00 0.00 0.00 100 1016.8
20260507214034 89 310 6.0 8.0 0.00 0.00 0.00 100 1016.8
20260507213830 90 305 6.0 11.0 0.00 0.00 0.00 100 1016.8
20260507213534 89 326 8.0 11.0 0.00 0.00 0.00 100 1016.7
20260507213034 90 307 10.0 11.0 0.00 0.00 0.00 100 1016.7
20260507212534 90 305 6.0 11.0 0.00 0.00 0.00 100 1016.8
20260507212034 90 315 7.0 12.0 0.00 0.00 0.00 100 1016.8
20260507211534 90 317 6.0 9.0 0.00 0.00 0.00 100 1016.8
20260507211034 92 291 3.0 9.0 0.00 0.00 0.00 100 1016.9
20260507210534 91 261 8.0 10.0 0.00 0.00 0.00 100 1017.0
20260507210034 92 317 5.0 14.0 0.00 0.00 0.00 100 1017.0
20260507205717 91 289 5.0 12.0 0.00 0.00 0.00 100 1017.0
20260507205534 92 307 5.0 12.0 0.00 0.00 0.00 100 1017.0
20260507205034 92 262 3.0 15.0 0.00 0.00 0.00 100 1017.0
20260507204534 92 270 6.0 12.0 0.00 0.00 0.00 100 1017.0
20260507204034 91 286 5.0 14.0 0.00 0.00 0.00 100 1017.0
20260507203534 91 289 5.0 12.0 0.00 0.00 0.00 100 1017.0
20260507203307 91 327 3.0 13.0 0.00 0.00 0.00 100 1017.0
20260507203034 92 312 3.0 11.0 0.00 0.00 0.00 100 1017.0
20260507202534 91 327 3.0 13.0 0.00 0.00 0.00 100 1017.0
20260507202320 91 268 5.0 15.0 0.00 0.00 0.00 100 1017.0
20260507202034 91 268 5.0 15.0 0.00 0.00 0.00 100 1017.0
20260507201534 92 237 5.0 12.0 0.00 0.00 0.00 100 1017.0
20260507201034 93 296 2.0 11.0 0.00 0.00 0.00 100 1017.0
20260507200550 93 324 11.0 13.0 0.00 0.00 0.00 100 1017.1
20260507200534 93 284 7.0 11.0 0.00 0.00 0.00 100 1017.0
20260507200034 93 324 11.0 13.0 0.00 0.00 0.00 100 1017.1
20260507195534 93 265 4.0 11.0 0.00 0.00 0.00 100 1017.0
20260507195034 93 337 2.0 12.0 0.00 0.00 0.00 100 1017.1
20260507194534 93 358 4.0 9.0 0.00 0.00 0.00 100 1017.1
20260507194217 91 262 12.0 14.0 0.00 0.00 0.00 100 1017.3
20260507194034 94 275 2.0 9.0 0.00 0.00 0.00 100 1017.3
20260507193534 92 272 2.0 11.0 0.00 0.00 0.00 100 1017.3
20260507193034 91 255 10.0 13.0 0.00 0.00 0.00 100 1017.3
20260507192534 91 262 12.0 14.0 0.00 0.00 0.00 100 1017.3
20260507192516 92 279 5.0 13.0 0.00 0.00 0.00 100 1017.6
20260507192034 92 230 5.0 11.0 0.00 0.00 0.00 100 1017.3
20260507191534 92 251 6.0 14.0 0.00 0.00 0.00 100 1017.4
20260507191034 93 264 5.0 12.0 0.00 0.00 0.00 100 1017.5
20260507190534 92 279 5.0 13.0 0.00 0.00 0.00 100 1017.6
20260507190513 92 285 6.0 13.0 0.00 0.00 0.00 100 1018.3
20260507190034 92 232 8.0 11.0 0.00 0.00 0.00 100 1017.6
20260507185534 92 255 5.0 12.0 0.00 0.00 0.00 100 1017.8
20260507185034 91 217 5.0 13.0 0.00 0.00 0.00 100 1017.9
20260507184534 91 282 5.0 12.0 0.00 0.00 0.00 100 1018.0
20260507184034 93 270 6.0 11.0 0.00 0.00 0.00 100 1018.0
20260507183534 92 271 6.0 13.0 0.00 0.00 0.00 100 1018.2
20260507183034 92 246 4.0 10.0 0.00 0.00 0.00 100 1018.1
20260507182534 92 260 9.0 14.0 0.00 0.00 0.00 100 1018.2
20260507182034 92 206 12.0 12.0 0.00 0.00 0.00 100 1018.2
20260507181535 92 285 6.0 13.0 0.00 0.00 0.00 100 1018.3
20260507181035 92 253 6.0 11.0 0.00 0.00 0.00 100 1018.3
20260507180535 91 278 8.0 14.0 0.00 0.00 0.00 100 1018.4
20260507180035 90 213 6.0 12.0 0.00 0.00 0.00 100 1018.6
20260507175835 91 323 1.0 14.0 0.00 0.00 0.00 100 1018.7
20260507175535 91 323 1.0 14.0 0.00 0.00 0.00 100 1018.7
20260507175035 92 319 1.0 12.0 0.00 0.00 0.00 100 1018.7
20260507174535 93 274 9.0 13.0 0.00 0.00 0.00 100 1018.7
20260507174035 92 236 4.0 14.0 0.00 0.00 0.00 100 1018.7
20260507173535 91 296 5.0 12.0 0.00 0.00 0.00 100 1018.8
20260507173323 91 267 4.0 14.0 0.00 0.00 0.00 100 1018.8
20260507173035 91 208 6.0 13.0 0.00 0.00 0.00 100 1018.8
20260507172535 92 248 5.0 15.0 0.00 0.00 0.00 100 1018.8
20260507172035 91 220 9.0 12.0 0.00 0.00 0.00 100 1018.8
20260507171535 91 267 4.0 14.0 0.00 0.00 0.00 100 1018.8
20260507171035 91 237 9.0 18.0 0.00 0.00 0.00 100 1018.8
20260507170535 89 158 3.0 13.0 0.00 0.00 0.00 100 1018.7
20260507170035 92 177 6.0 13.0 0.00 0.00 0.00 100 1018.9
20260507165535 91 255 7.0 14.0 0.00 0.00 0.00 100 1018.9
20260507165145 92 277 2.0 12.0 0.00 0.00 0.00 100 1018.9
20260507165035 90 300 3.0 13.0 0.00 0.00 0.00 100 1018.9
20260507164535 92 277 2.0 12.0 0.00 0.00 0.00 100 1018.9
20260507164035 90 262 10.0 14.0 0.00 0.00 0.00 100 1019.1
20260507163535 89 244 4.0 12.0 0.00 0.00 0.00 100 1019.0
20260507163035 91 226 10.0 15.0 0.00 0.00 0.00 100 1019.0
20260507162535 91 260 7.0 13.0 0.00 0.00 0.00 100 1019.1
20260507162035 92 236 4.0 11.0 0.00 0.00 0.00 100 1019.1
20260507161535 91 257 9.0 14.0 0.00 0.00 0.00 100 1019.1
20260507161035 90 246 8.0 13.0 0.00 0.00 0.00 100 1019.1
20260507160535 90 230 2.0 11.0 0.00 0.00 0.00 100 1019.2
20260507160035 89 230 8.0 15.0 0.00 0.00 0.00 100 1019.3
20260507155727 90 247 7.0 15.0 0.00 0.00 0.00 100 1019.3
20260507155535 90 247 7.0 15.0 0.00 0.00 0.00 100 1019.3
20260507155035 90 239 13.0 16.0 0.00 0.00 0.00 100 1019.3
20260507154535 88 241 4.0 11.0 0.00 0.00 0.00 100 1019.3
20260507154035 90 250 11.0 13.0 0.00 0.00 0.00 100 1019.3
20260507153535 88 230 9.0 13.0 0.00 0.00 0.00 100 1019.4
20260507153035 88 265 10.0 12.0 0.00 0.00 0.00 100 1019.3
20260507152535 88 277 7.0 13.0 0.00 0.00 0.00 100 1019.2
20260507152035 88 217 9.0 11.0 0.00 0.00 0.00 100 1019.3
20260507151535 87 210 8.0 12.0 0.00 0.00 0.00 100 1019.3
20260507151501 87 281 3.0 11.0 0.00 0.00 0.00 100 1019.3
20260507151035 87 225 9.0 13.0 0.00 0.00 0.00 100 1019.3
20260507150535 87 230 9.0 12.0 0.00 0.00 0.00 100 1019.3
20260507150035 87 216 7.0 11.0 0.00 0.00 0.00 100 1019.3
20260507145535 86 220 10.0 15.0 0.00 0.00 0.00 100 1019.3
20260507145035 86 243 8.0 17.0 0.00 0.00 0.00 100 1019.2
20260507144535 87 281 3.0 11.0 0.00 0.00 0.00 100 1019.3
20260507144035 85 236 5.0 11.0 0.00 0.00 0.00 100 1019.3
20260507143535 84 199 7.0 13.0 0.00 0.00 0.00 100 1019.2
20260507143035 85 237 9.0 11.0 0.00 0.00 0.00 100 1019.3
20260507142535 84 278 3.0 11.0 0.00 0.00 0.00 100 1019.3
20260507142036 85 223 6.0 11.0 0.00 0.00 0.00 100 1019.2
20260507141536 84 206 8.0 13.0 0.00 0.00 0.00 100 1019.2
20260507141255 83 196 10.0 11.0 0.00 0.00 0.00 100 1019.2
20260507141036 83 210 6.0 11.0 0.00 0.00 0.00 100 1019.2
20260507140536 83 196 10.0 11.0 0.00 0.00 0.00 100 1019.2
20260507140521 83 250 5.0 10.0 0.00 0.00 0.00 100 1019.1
20260507140036 83 234 8.0 10.0 0.00 0.00 0.00 100 1019.3
20260507135536 83 237 4.0 11.0 0.00 0.00 0.00 100 1019.3
20260507135036 83 243 3.0 12.0 0.00 0.00 0.00 100 1019.2
20260507134536 83 250 5.0 10.0 0.00 0.00 0.00 100 1019.1
20260507134036 82 226 4.0 8.0 0.00 0.00 0.00 100 1019.1
20260507133536 82 213 8.0 9.0 0.00 0.00 0.00 100 1019.1
20260507133036 81 203 3.0 8.0 0.00 0.00 0.00 100 1019.0
20260507132536 80 178 3.0 9.0 0.00 0.00 0.00 100 1019.0
20260507132036 80 177 7.0 8.0 0.00 0.00 0.00 100 1018.9
20260507131649 79 175 4.0 11.0 0.00 0.00 0.00 100 1018.9
20260507131536 79 175 4.0 11.0 0.00 0.00 0.00 100 1018.9
20260507131036 80 206 7.0 9.0 0.00 0.00 0.00 100 1018.8
20260507130536 79 219 8.0 8.0 0.00 0.00 0.00 100 1018.8
20260507130206 79 188 1.0 5.0 0.00 0.00 0.00 100 1018.9
20260507130036 79 188 1.0 5.0 0.00 0.00 0.00 100 1018.9
20260507125536 78 243 1.0 4.0 0.00 0.00 0.00 100 1018.8
20260507125036 78 158 2.0 4.0 0.00 0.00 0.00 100 1018.8
20260507124536 78 229 4.0 5.0 0.00 0.00 0.00 100 1018.9
20260507124036 77 232 4.0 4.0 0.00 0.00 0.00 100 1018.8
20260507123536 77 232 2.0 4.0 0.00 0.00 0.00 100 1018.8
20260507123036 76 215 3.0 3.0 0.00 0.00 0.00 100 1018.8
20260507122536 75 215 1.0 3.0 0.00 0.00 0.00 100 1018.8
20260507122036 74 172 0.0 2.0 0.00 0.00 0.00 100 1018.7
20260507121536 73 187 1.0 4.0 0.00 0.00 0.00 100 1018.7
20260507121036 72 201 0.0 0.0 0.00 0.00 0.00 100 1018.6
20260507120536 71 201 0.0 0.0 0.00 0.00 0.00 100 1018.6
20260507120036 70 201 0.0 0.0 0.00 0.00 0.00 100 1018.6
20260507115536 70 201 0.0 1.0 0.00 0.00 0.00 100 1018.5
20260507115036 69 42 0.0 0.0 0.00 0.00 0.00 100 1018.5
20260507114619 69 42 0.0 0.0 0.00 0.00 0.00 100 1018.5
20260507114536 69 42 0.0 0.0 0.00 0.00 0.00 100 1018.5
20260507114036 67 42 0.0 0.0 0.00 0.00 0.00 100 1018.4
20260507113536 66 42 0.0 0.0 0.00 0.00 0.00 100 1018.4
20260507113036 66 42 0.0 0.0 0.00 0.00 0.00 100 1018.5
20260507112536 64 42 0.0 0.0 0.00 0.00 0.00 100 1018.5
20260507112036 64 42 0.0 0.0 0.00 0.00 0.00 100 1018.4
20260507111536 63 42 0.0 0.0 0.00 0.00 0.00 100 1018.4
20260507111036 62 42 0.0 0.0 0.00 0.00 0.00 100 1018.4
20260507110536 62 42 0.0 0.0 0.00 0.00 0.00 100 1018.4
20260507110036 61 42 0.0 0.0 0.00 0.00 0.00 100 1018.3
20260507105536 61 42 0.0 0.0 0.00 0.00 0.00 100 1018.3
20260507105036 61 42 0.0 0.0 0.00 0.00 0.00 100 1018.2
20260507104536 61 42 0.0 0.0 0.00 0.00 0.00 100 1018.2
20260507104118 61 42 0.0 0.0 0.00 0.00 0.00 100 1018.1
20260507104036 61 42 0.0 0.0 0.00 0.00 0.00 100 1018.1
20260507103536 62 42 0.0 0.0 0.00 0.00 0.00 100 1018.1
20260507103116 62 42 0.0 0.0 0.00 0.00 0.00 100 1017.8
20260507103036 61 42 0.0 0.0 0.00 0.00 0.00 100 1018.0
20260507102536 62 42 0.0 0.0 0.00 0.00 0.00 100 1017.8
20260507102037 62 42 0.0 0.0 0.00 0.00 0.00 100 1018.0
20260507101537 62 42 0.0 0.0 0.00 0.00 0.00 100 1017.8
20260507101037 62 42 0.0 0.0 0.00 0.00 0.00 100 1017.8
20260507100537 63 42 0.0 0.0 0.00 0.00 0.00 100 1017.6
20260507100104 62 42 0.0 0.0 0.00 0.00 0.00 100 1017.7
20260507100037 63 42 0.0 0.0 0.00 0.00 0.00 100 1017.7
20260507095537 63 42 0.0 0.0 0.00 0.00 0.00 100 1017.7
20260507095037 63 42 0.0 0.0 0.00 0.00 0.00 100 1017.6
20260507094537 62 42 0.0 0.0 0.00 0.00 0.00 100 1017.7
20260507094037 63 42 0.0 0.0 0.00 0.00 0.00 100 1017.8
20260507093537 63 42 0.0 0.0 0.00 0.00 0.00 100 1017.7
20260507093321 63 42 0.0 0.0 0.00 0.00 0.00 100 1017.7
20260507093240 63 42 0.0 0.0 0.00 0.00 0.00 100 1017.7
20260507093037 63 42 0.0 0.0 0.00 0.00 0.00 100 1017.7
20260507092537 63 42 0.0 0.0 0.00 0.00 0.00 100 1017.6
20260507092037 64 42 0.0 0.0 0.00 0.00 0.00 100 1017.7
20260507091613 64 42 0.0 0.0 0.00 0.00 0.00 100 1017.6
20260507091537 64 42 0.0 0.0 0.00 0.00 0.00 100 1017.6
20260507091136 64 42 0.0 0.0 0.00 0.00 0.00 100 1017.6
20260507091037 64 42 0.0 0.0 0.00 0.00 0.00 100 1017.6
20260507090537 64 42 0.0 0.0 0.00 0.00 0.00 100 1017.5
20260507090037 64 42 0.0 0.0 0.00 0.00 0.00 100 1017.5
20260507085537 64 42 0.0 0.0 0.00 0.00 0.00 100 1017.4
20260507085037 65 42 0.0 0.0 0.00 0.00 0.00 100 1017.3
20260507084537 65 42 0.0 0.0 0.00 0.00 0.00 100 1017.2
20260507084329 66 42 0.0 0.0 0.00 0.00 0.00 100 1017.2
20260507084154 65 42 0.0 0.0 0.00 0.00 0.00 100 1017.1
20260507084037 65 42 0.0 0.0 0.00 0.00 0.00 100 1017.1
20260507083537 65 42 0.0 0.0 0.00 0.00 0.00 100 1017.1
20260507083037 64 42 0.0 0.0 0.00 0.00 0.00 100 1017.1
20260507082537 65 42 0.0 0.0 0.00 0.00 0.00 100 1017.0
20260507082132 65 42 0.0 0.0 0.00 0.00 0.00 100 1017.0
20260507082037 65 42 0.0 0.0 0.00 0.00 0.00 100 1017.0
20260507081537 65 42 0.0 0.0 0.00 0.00 0.00 100 1017.1
20260507081037 66 42 0.0 0.0 0.00 0.00 0.00 100 1017.3
20260507080537 66 42 0.0 0.0 0.00 0.00 0.00 100 1017.2
20260507080455 67 42 0.0 0.0 0.00 0.00 0.00 100 1017.2
20260507080037 67 42 0.0 0.0 0.00 0.00 0.00 100 1017.2
20260507075537 66 42 0.0 0.0 0.00 0.00 0.00 100 1017.2
20260507075037 66 42 0.0 0.0 0.00 0.00 0.00 100 1017.1
20260507074537 65 42 0.0 0.0 0.00 0.00 0.00 100 1017.0
20260507074037 65 42 0.0 0.0 0.00 0.00 0.00 100 1017.0
20260507073537 65 42 0.0 0.0 0.00 0.00 0.00 100 1017.0
20260507073037 65 42 0.0 0.0 0.00 0.00 0.00 100 1016.9
20260507072615 65 42 0.0 0.0 0.00 0.00 0.00 100 1017.0
20260507072537 65 42 0.0 0.0 0.00 0.00 0.00 100 1017.0
20260507072037 65 42 0.0 1.0 0.00 0.00 0.00 100 1017.0
20260507071537 65 46 0.0 0.0 0.00 0.00 0.00 100 1017.0
20260507071037 65 46 0.0 0.0 0.00 0.00 0.00 100 1017.1
20260507070623 65 46 0.0 0.0 0.00 0.00 0.00 100 1017.2
20260507070537 65 46 0.0 0.0 0.00 0.00 0.00 100 1017.2
20260507070037 65 46 0.0 0.0 0.00 0.00 0.00 100 1017.3
20260507065537 66 46 0.0 0.0 0.00 0.00 0.00 100 1017.4
20260507065037 66 46 0.0 0.0 0.00 0.00 0.00 100 1017.4
20260507064537 66 46 0.0 0.0 0.00 0.00 0.00 100 1017.6
20260507064037 66 46 0.0 0.0 0.00 0.00 0.00 100 1017.6
20260507063826 66 46 0.0 0.0 0.00 0.00 0.00 100 1018.1
20260507063537 66 46 0.0 0.0 0.00 0.00 0.00 100 1017.8
20260507063038 66 46 0.0 0.0 0.00 0.00 0.00 100 1018.1
20260507062537 66 46 0.0 0.0 0.00 0.00 0.00 100 1018.1
20260507062038 66 46 0.0 0.0 0.00 0.00 0.00 100 1018.0
20260507061538 66 46 0.0 0.0 0.00 0.00 0.00 100 1018.1
20260507061150 66 46 0.0 0.0 0.00 0.00 0.00 100 1018.3
20260507061038 66 46 0.0 0.0 0.00 0.00 0.00 100 1018.3
20260507060538 66 46 0.0 0.0 0.00 0.00 0.00 100 1018.3
20260507060038 66 46 0.0 0.0 0.00 0.00 0.00 100 1018.3
20260507055634 67 46 0.0 0.0 0.00 0.00 0.00 100 1018.5
20260507055538 67 46 0.0 0.0 0.00 0.00 0.00 100 1018.5
20260507055118 67 46 0.0 0.0 0.00 0.00 0.00 100 1018.4
20260507055038 67 46 0.0 0.0 0.00 0.00 0.00 100 1018.4
20260507055026 67 46 0.0 0.0 0.00 0.00 0.00 100 1018.6
20260507054613 66 46 0.0 0.0 0.00 0.00 0.00 100 1018.4
20260507054538 66 46 0.0 0.0 0.00 0.00 0.00 100 1018.4
20260507054226 67 46 0.0 0.0 0.00 0.00 0.00 100 1018.5
20260507054038 67 46 0.0 0.0 0.00 0.00 0.00 100 1018.5
20260507053538 67 46 0.0 0.0 0.00 0.00 0.00 100 1018.6
20260507053425 67 46 0.0 0.0 0.00 0.00 0.00 100 1018.9
20260507053038 67 46 0.0 0.0 0.00 0.00 0.00 100 1018.8
20260507052538 67 46 0.0 0.0 0.00 0.00 0.00 100 1018.8
20260507052038 67 46 0.0 0.0 0.00 0.00 0.00 100 1018.9
20260507051655 67 46 0.0 0.0 0.00 0.00 0.00 100 1019.0
20260507051538 68 46 0.0 0.0 0.00 0.00 0.00 100 1019.0
20260507051038 67 46 0.0 0.0 0.00 0.00 0.00 100 1019.0
20260507050538 68 46 0.0 0.0 0.00 0.00 0.00 100 1019.2
20260507050038 68 46 0.0 0.0 0.00 0.00 0.00 100 1019.2
20260507045538 68 46 0.0 0.0 0.00 0.00 0.00 100 1019.1
20260507045038 68 46 0.0 0.0 0.00 0.00 0.00 100 1019.1
20260507044540 69 97 0.0 0.0 0.00 0.00 0.00 100 1019.1
20260507044538 68 46 0.0 0.0 0.00 0.00 0.00 100 1019.0
20260507044038 69 46 0.0 0.0 0.00 0.00 0.00 100 1019.1
20260507043602 69 97 0.0 3.0 0.00 0.00 0.00 100 1019.1
20260507043538 69 97 0.0 0.0 0.00 0.00 0.00 100 1019.1
20260507043038 69 97 0.0 3.0 0.00 0.00 0.00 100 1019.1
20260507042538 69 45 0.0 4.0 0.00 0.00 0.00 100 1019.2
20260507042038 68 91 4.0 4.0 0.00 0.00 0.00 100 1019.1
20260507041538 68 11 0.0 0.0 0.00 0.00 0.00 100 1019.1
20260507041038 68 11 0.0 0.0 0.00 0.00 0.00 100 1019.0
20260507040538 68 11 0.0 0.0 0.00 0.00 0.00 100 1019.1
20260507040038 68 11 0.0 0.0 0.00 0.00 0.00 100 1019.0
20260507035538 68 11 0.0 0.0 0.00 0.00 0.00 100 1018.9
20260507035038 68 11 0.0 0.0 0.00 0.00 0.00 100 1018.9
20260507034538 69 11 0.0 0.0 0.00 0.00 0.00 100 1018.8
20260507034038 68 11 0.0 0.0 0.00 0.00 0.00 100 1018.7
20260507033538 68 11 0.0 0.0 0.00 0.00 0.00 100 1018.8
20260507033038 68 11 0.0 0.0 0.00 0.00 0.00 100 1018.8
20260507032611 69 11 0.0 0.0 0.00 0.00 0.00 100 1018.7
20260507032538 69 11 0.0 0.0 0.00 0.00 0.00 100 1018.7
20260507032038 69 11 0.0 0.0 0.00 0.00 0.00 100 1018.7
20260507031538 69 11 0.0 0.0 0.00 0.00 0.00 100 1018.6
20260507031132 69 11 0.0 0.0 0.00 0.00 0.00 100 1018.7
20260507031038 69 11 0.0 0.0 0.00 0.00 0.00 100 1018.7
20260507030538 69 11 0.0 0.0 0.00 0.00 0.00 100 1018.8
20260507030038 70 11 0.0 0.0 0.00 0.00 0.00 100 1018.8
20260507025538 70 11 0.0 0.0 0.00 0.00 0.00 100 1018.8
20260507025038 70 11 0.0 0.0 0.00 0.00 0.00 100 1018.7
20260507024612 70 11 0.0 0.0 0.00 0.00 0.00 100 1018.7
20260507024538 70 11 0.0 0.0 0.00 0.00 0.00 100 1018.7
20260507024038 70 11 0.0 0.0 0.00 0.00 0.00 100 1018.7
20260507023539 70 11 0.0 0.0 0.00 0.00 0.00 100 1018.7
20260507023039 70 11 0.0 0.0 0.00 0.00 0.00 100 1018.8
20260507022539 70 11 0.0 0.0 0.00 0.00 0.00 100 1018.8
20260507022137 71 11 0.0 0.0 0.00 0.00 0.00 100 1018.8
20260507022039 71 11 0.0 0.0 0.00 0.00 0.00 100 1018.8
20260507021539 71 11 0.0 0.0 0.00 0.00 0.00 100 1018.8
20260507021039 71 11 0.0 0.0 0.00 0.00 0.00 100 1018.8
20260507020715 72 11 0.0 0.0 0.00 0.00 0.00 100 1018.8
20260507020539 71 11 0.0 0.0 0.00 0.00 0.00 100 1018.8
20260507020039 72 11 0.0 0.0 0.00 0.00 0.00 100 1018.8
20260507015539 72 11 0.0 0.0 0.00 0.00 0.00 100 1018.8
20260507015039 72 11 0.0 0.0 0.00 0.00 0.00 100 1018.8
20260507014539 72 11 0.0 0.0 0.00 0.00 0.00 100 1018.8
20260507014039 72 11 0.0 0.0 0.00 0.00 0.00 100 1018.8
20260507013612 73 11 0.0 0.0 0.00 0.00 0.00 100 1018.7
20260507013539 73 11 0.0 0.0 0.00 0.00 0.00 100 1018.7